Location: Alfortville
(48.8058°N, 2.4204°E)
Time: 04:08:35
(UTC+00:00)

USA 229 DEB - Pass Details

Date: 04 June 2022
Orbit: 934 x 1278 km, 63.4° (Epoch: 24 May)

Event Time Altitude Azimuth Distance (km) Brightness Sun altitude
Rises 21:13:50 0° 317° (NW) 3,924 8.8 -10.8°
Reaches altitude 10° 21:16:27 10° 320° (NW) 3,012 7.6 -11.0°
Maximum altitude 21:23:42 69° 44° (NE) 1,274 4.1 -11.7°
Enters shadow 21:30:46 13° 126° (SE) 2,987 5.5 -12.3°
